Home > Time Zones > World Clock > Weather > Cuba > Havana > Past weeks

Flag for Cuba Weather past 2 weeks in Havana, Cuba

Now
55 °F

Clear.


Feels Like: 55 °F
Forecast: 69 / 82 °F
Wind: 2 mph from North

Location: Aeropuerto Jose Marti - Rancho-Boyeros - Habana

Current Time: Apr 1, 2015 at 6:10:27 AM

Latest Report: Apr 1, 2015 at 4:55 AM


Visibility: 5 mi

Pressure: 30.09 "Hg

Humidity: 88%

Dew point: 52 °F

Location of HavanaLocation

Historic Weather in Havana — Graph

°F

Havana temperature yesterday

Maximum temperature yesterday: 82 °F (at 12:55 PM)
Minimum temperature yesterday: 54 °F (at 5:55 AM)
Average temperature yesterday: 69 °F

Past Weeks' High & Low Weather Summary

 TemperatureHumidityPressure
High90 °F (Mar 26, 1:55 PM)100% (Mar 23, 3:55 AM)30.27 "Hg (Mar 23, 3:55 AM)
Low45 °F (Mar 23, 3:55 AM)27% (Mar 23, 1:55 PM)29.92 "Hg (Mar 27, 2:55 PM)
Average74 °F67%30.07 "Hg
* Reported Mar 17 4:55 AM — Apr 1 4:55 AM, Havana, Weather by CustomWeather, © 2015

Note: Actual official high and low records may vary slightly from our data, if they occured in-between our weather recording intervals... More about our weather records

Advertising

Havana weather history for previous 24 hours

 ConditionsComfort  
Time TempWeatherWind HumidityBarometerVisibility
4:55 AM
Wed, Apr 1
55 °FClear.2 mph88%30.09 "Hg5 mi
3:55 AM61 °FClear.6 mph77%30.09 "Hg5 mi
2:55 AM63 °FPassing clouds.5 mph77%30.09 "HgN/A
1:55 AM64 °FClear.2 mph73%30.12 "Hg10 mi
12:55 AM63 °FClear.7 mph77%30.12 "Hg10 mi
11:55 PM
Tue, Mar 31
63 °FClear.7 mph77%30.12 "Hg10 mi
10:55 PM66 °FClear.8 mph73%30.12 "Hg10 mi
9:55 PM68 °FClear.8 mph69%30.12 "Hg10 mi
8:55 PM68 °FClear.9 mph69%30.09 "Hg10 mi
7:55 PM72 °FSunny.9 mph57%30.09 "Hg10 mi
6:55 PM77 °FSunny.14 mph47%30.07 "Hg10 mi
5:55 PM81 °FPassing clouds.14 mph42%30.07 "HgN/A
4:55 PM81 °FPassing clouds.14 mph39%30.07 "HgN/A
3:55 PM82 °FPassing clouds.16 mph37%30.09 "HgN/A
2:55 PM82 °FScattered clouds.15 mph40%30.09 "HgN/A
1:55 PM82 °FScattered clouds.15 mph37%30.12 "HgN/A
12:55 PM82 °FScattered clouds.14 mph40%30.15 "HgN/A
11:55 AM79 °FScattered clouds.15 mph45%30.15 "HgN/A
10:55 AM79 °FScattered clouds.16 mph48%30.15 "HgN/A
9:55 AM75 °FPassing clouds.9 mph54%30.15 "HgN/A
8:55 AM63 °FPassing clouds.No wind88%30.15 "Hg6 mi
7:55 AM54 °FLight fog.No wind88%30.15 "Hg4 mi
6:55 AM54 °FPassing clouds.No wind88%30.12 "Hg5 mi
Weather by CustomWeather, © 2015

See weather overviewHow to use our weather pages